User: anonymous   Login
Location: Nairn
(57.5833°N, 3.8667°W)
Time: 06:46:02
(UTC+00:00)
Language:

Courier 1B Rocket - Orbit

View from above orbital plane
View from above orbital plane
View from above satellite
View from above satellite

Ground track
Ground track

The orbit data is extracted from the following two-line orbital elements,

1    59U 60013B   20331.72023846  .00000107  00000-0  20844-4 0  9995
2    59  28.2483 104.6695 0189149 208.1639 150.8563 13.52980343969106
Epoch (UTC): 26 November 2020 17:17:08
Eccentricity: 0.0189149
inclination: 28.2483°
perigee height: 920 km
apogee height: 1202 km
right ascension of ascending node: 104.6695°
argument of perigee: 208.1639°
revolutions per day: 13.52980343
mean anomaly at epoch: 150.8563°
orbit number at epoch: 96910

The dashed part of the orbit path shows where the satellite is in the earth's shadow,  

DLR